Terug naar catalogus

SL-14 DEB

ActiefPO
NORAD 45319·DEBRIS·🇷🇺 Russia

Gelanceerd Aug 15, 1991 vanaf Plesetsk Cosmodrome

Loading…

Volgende Passages (komende 24 uur)

TLE

VersSource: Space-Track

Epoch: Sep 14, 2026, 07:53 UTC

1 45319U 91056BH  26257.32848258  .00000724  00000-0  12900-2 0  9992
2 45319  82.5824  24.2904 0078617 348.0121  11.9141 13.39712112319181

Volg SL-14 DEB in realtime met AllMySat

Download on the App Store